Theta_e
307 307 307 307 307 307 307 307 307 307 306 307 307 307 307 307 307 307 307 308 308 308 308 308 308 308 308 306 305 304 303 305 310 313 313 313 315 315 314 314 310 306 306 310 315 319 314 312 316 320 318 318 317 317 317 316 316 316 317 316 314 316 315 317 320 319 318 320 322 322 321 320 322 322 323 323 327 339 341 340 344 347 350 351 352 352 354 354
307 307 307 307 307 307 307 307 306 306 306 306 306 306 307 307 307 307 307 308 308 308 308 308 308 308 308 306 305 304 303 308 313 314 313 312 312 313 313 311 308 305 306 310 316 319 316 314 317 319 318 318 317 317 316 317 316 317 317 315 314 318 318 319 321 319 320 321 321 322 321 321 323 323 324 326 330 336 341 341 341 344 345 347 351 351 353 353
307 307 307 307 307 307 306 306 306 306 306 305 305 306 306 307 307 307 307 307 307 308 308 308 308 308 307 306 304 303 306 312 313 314 315 313 312 312 312 310 307 305 305 310 315 318 316 316 319 319 317 317 318 316 315 316 316 316 317 315 316 318 319 319 320 321 321 321 321 321 322 324 325 324 325 328 329 333 341 342 341 345 345 346 350 350 352 353
307 306 306 307 306 306 306 306 306 305 306 306 305 305 306 306 306 306 307 307 307 307 308 308 307 307 307 306 303 303 309 312 312 315 313 314 314 312 311 310 308 305 305 309 313 317 316 316 319 318 317 317 317 316 315 317 316 316 317 316 317 319 319 320 319 320 320 320 321 322 322 325 327 327 326 328 330 333 338 340 342 348 348 348 349 350 352 353
306 306 306 306 306 306 306 305 305 305 305 306 305 305 306 306 306 306 306 306 307 307 307 307 307 307 306 304 302 304 310 309 311 315 310 312 311 310 310 309 308 305 306 309 312 317 316 316 318 318 317 316 317 316 316 316 316 316 316 316 317 318 319 319 319 319 320 320 320 321 321 323 327 329 327 325 331 335 336 339 343 346 346 348 349 350 353 352
306 306 306 306 306 306 305 305 305 305 305 305 305 306 306 306 306 306 306 306 307 307 307 307 307 306 305 303 302 307 311 309 314 314 309 309 308 307 307 307 307 305 307 309 312 316 317 316 316 317 316 315 316 316 316 317 317 317 317 317 316 318 319 319 318 318 319 320 319 320 319 322 327 330 328 326 334 338 338 340 343 345 346 347 349 350 352 352
305 306 306 306 306 306 305 305 305 305 305 305 305 305 305 306 306 306 306 306 306 306 306 306 306 306 305 303 305 311 312 311 313 313 311 309 307 306 305 306 305 305 308 310 311 314 315 315 315 317 316 315 316 316 317 317 316 316 316 317 317 318 319 319 319 318 319 318 319 320 319 319 324 327 326 328 334 339 338 340 341 343 346 346 347 349 351 352
305 305 305 306 306 306 305 305 305 304 304 304 304 304 304 304 306 306 306 306 306 306 306 306 306 306 305 306 311 311 310 311 312 313 313 309 308 308 307 308 306 307 310 311 312 313 314 315 315 315 316 315 315 316 316 316 316 315 316 317 318 318 318 318 318 318 318 319 319 319 319 319 320 322 324 329 334 338 337 339 342 343 344 345 347 349 350 352
305 305 305 305 305 305 305 305 305 304 304 304 304 304 304 304 305 306 305 305 305 305 305 306 306 305 304 307 312 311 312 311 312 315 313 311 312 311 309 311 310 308 310 311 312 313 313 313 314 315 315 315 316 315 316 315 315 315 316 316 317 318 318 318 317 318 318 318 319 318 319 318 320 321 322 329 334 337 337 339 342 343 345 346 347 349 349 351
305 305 305 305 305 305 305 305 305 304 304 304 304 304 305 305 305 305 305 305 305 304 305 305 306 305 305 309 311 312 312 310 313 314 314 313 315 316 313 313 312 310 310 311 311 313 313 313 314 314 315 316 315 315 315 316 316 317 316 316 316 317 317 317 317 318 318 318 319 318 318 318 320 321 323 329 334 335 335 338 340 342 345 346 346 348 349 351
305 304 304 304 305 305 305 305 304 304 304 304 304 304 305 305 305 305 304 304 304 304 304 305 305 305 307 310 311 314 310 310 313 313 314 313 315 319 316 314 314 312 310 311 311 312 313 313 315 315 314 315 314 315 315 315 315 317 317 316 317 316 317 318 316 317 317 317 318 319 318 319 319 319 322 328 333 333 333 336 339 340 344 345 346 347 347 350
305 304 304 304 304 305 305 305 304 304 304 304 304 304 305 305 304 304 304 304 304 304 304 306 305 306 309 310 311 314 312 311 314 314 315 314 313 315 316 314 315 313 311 311 312 312 312 314 314 313 314 314 314 314 314 315 315 315 316 316 316 316 316 316 317 316 317 317 319 318 316 317 319 318 322 328 331 332 333 334 338 340 340 342 344 345 345 348
305 304 304 304 304 305 305 304 304 304 304 304 304 304 304 304 304 304 304 304 304 304 305 305 305 306 309 310 311 312 312 312 312 312 313 314 314 315 316 317 316 315 314 312 313 313 312 313 313 313 314 314 315 314 315 315 315 315 316 316 316 316 314 316 317 316 318 318 318 318 312 314 319 318 320 327 329 330 334 336 337 337 337 338 340 342 345 348
304 304 304 304 304 304 304 304 304 304 304 303 304 304 304 304 303 303 303 303 303 304 304 305 305 307 309 310 310 309 310 311 310 310 311 312 313 314 315 316 315 315 314 313 314 313 313 313 313 314 313 314 314 315 314 314 314 315 315 315 315 312 312 316 316 316 318 318 319 318 311 313 318 318 319 326 327 329 336 338 337 334 335 335 338 342 346 347
304 304 304 304 304 304 304 304 304 304 303 303 304 304 304 303 302 302 302 303 303 303 304 305 305 308 310 310 310 310 310 310 310 310 309 310 310 311 313 314 314 314 313 314 313 314 314 313 312 312 313 314 314 313 313 314 314 315 312 311 313 311 312 317 316 316 318 317 319 317 311 314 318 318 321 325 325 326 333 337 337 335 336 337 339 343 346 347
304 304 304 303 303 303 303 304 304 304 303 303 303 303 303 302 302 301 302 303 303 303 304 306 307 308 309 310 311 311 311 310 309 309 309 309 309 310 311 313 313 313 314 314 314 315 315 313 313 312 313 313 313 313 313 313 313 314 313 309 310 311 311 314 316 316 317 317 319 317 313 316 318 318 322 324 324 325 330 334 335 335 337 338 339 343 346 346
304 304 303 303 303 303 303 303 303 303 303 303 303 302 302 301 302 301 302 303 302 303 304 307 309 309 309 310 310 310 311 311 310 309 309 308 308 308 310 312 313 313 314 315 315 315 315 314 313 313 313 313 313 312 311 310 310 312 313 310 311 312 310 312 315 316 318 317 318 318 316 316 318 319 322 324 323 323 327 334 334 335 338 339 338 341 344 345
304 303 303 303 303 303 302 302 302 303 303 303 302 301 301 301 302 302 303 304 304 305 306 307 309 310 311 311 310 310 310 311 310 310 309 308 308 308 309 312 314 312 313 314 315 314 315 313 313 314 312 312 313 312 310 311 312 310 310 310 310 311 310 311 314 316 317 317 318 317 316 317 317 320 322 323 324 323 329 334 335 335 337 337 337 338 340 342
304 303 303 303 303 303 302 302 302 303 303 303 302 301 302 302 302 304 306 306 306 307 307 307 309 311 311 311 311 310 310 311 310 310 309 309 308 308 309 313 314 311 312 314 314 314 314 313 313 312 312 311 312 312 311 314 315 313 313 311 309 309 311 313 316 317 317 317 318 317 317 317 318 320 322 323 323 323 330 335 336 337 337 338 340 340 341 342
304 303 303 303 303 302 301 302 302 303 303 302 302 303 305 306 307 308 308 306 306 307 306 306 309 309 307 308 310 310 310 310 310 310 310 309 308 308 309 313 314 312 312 313 313 314 314 313 312 311 311 311 312 313 313 315 316 316 315 313 311 310 310 315 317 317 318 316 316 317 318 317 318 320 321 323 322 325 334 336 338 338 339 340 340 337 336 338
304 303 303 303 302 301 300 301 302 302 302 302 303 304 305 307 309 309 308 307 306 307 306 306 308 308 307 308 310 310 310 309 310 310 310 309 308 307 308 312 313 312 313 313 313 313 313 312 312 311 311 312 312 314 314 315 316 315 314 312 311 310 312 316 318 318 317 317 315 318 317 317 319 320 321 323 321 328 337 338 336 336 339 340 338 335 333 335
304 303 303 302 302 301 300 301 302 302 302 303 303 303 304 306 307 307 308 308 308 307 306 306 307 307 308 309 309 310 310 309 309 309 310 309 308 307 308 312 313 313 313 313 313 313 313 312 312 312 312 312 313 314 315 315 316 315 315 313 310 312 314 315 318 319 317 315 315 317 316 317 320 319 321 323 321 328 336 337 337 336 338 340 337 336 335 335
304 303 303 302 302 301 301 300 301 302 302 303 303 304 305 305 306 306 307 308 308 309 308 307 306 306 307 309 310 310 309 309 309 309 310 309 308 307 309 312 313 313 313 312 313 312 311 311 313 313 312 313 313 314 315 315 316 315 314 312 310 312 313 311 315 319 318 317 317 318 316 317 320 320 320 323 320 326 334 334 336 336 337 339 338 338 336 334
304 303 303 302 301 301 301 300 301 302 302 303 303 304 305 305 305 305 306 307 306 308 309 309 308 306 306 308 310 309 309 309 309 310 310 309 308 307 309 312 313 313 313 313 313 312 312 311 313 313 312 313 313 314 316 314 315 315 315 313 312 313 313 312 316 318 317 317 318 317 313 313 318 320 321 323 321 323 330 329 331 335 337 337 338 339 339 337
304 303 303 302 301 301 300 300 301 302 303 303 303 304 304 305 305 305 306 307 307 307 308 309 310 308 307 308 309 309 308 309 309 310 311 310 309 307 309 312 313 313 314 314 313 313 312 313 313 313 312 313 313 314 315 315 313 313 316 317 315 316 316 315 317 316 313 312 317 316 308 309 317 319 321 323 323 323 327 328 330 336 338 337 338 339 340 340
304 303 303 302 301 300 300 301 303 304 304 304 304 305 305 304 304 305 305 306 307 307 306 307 309 309 307 307 308 309 308 308 309 311 311 310 309 309 309 312 313 313 314 314 314 313 314 315 314 313 312 312 314 312 314 315 312 312 316 317 319 318 316 315 316 313 309 309 316 317 310 309 313 317 320 322 324 327 329 331 335 337 337 337 339 339 339 340
304 303 302 301 300 299 300 303 304 305 304 304 304 305 304 304 305 306 308 308 308 307 307 307 309 309 307 307 308 308 307 308 309 310 312 311 310 309 309 311 314 313 314 314 314 313 315 316 315 313 312 312 312 312 314 315 312 312 317 318 319 318 316 316 315 312 312 312 315 316 313 309 310 316 322 321 325 328 329 330 333 336 338 338 338 339 339 340
304 303 302 301 300 299 301 303 304 305 304 305 304 304 305 305 305 307 310 312 311 307 308 308 309 309 307 307 307 306 307 308 308 309 311 312 310 309 308 311 313 313 314 314 312 314 315 316 315 314 312 312 312 312 314 315 314 314 317 319 317 317 316 316 314 312 313 313 311 312 313 310 309 316 323 322 323 325 326 327 329 335 338 337 335 337 339 341
304 303 302 301 300 299 300 302 303 305 305 304 304 304 305 305 306 308 309 314 313 307 310 309 308 308 306 307 306 306 307 307 307 308 310 311 311 309 309 310 313 313 313 314 313 315 316 316 316 315 312 311 312 313 314 315 315 316 318 318 316 317 316 316 315 311 312 313 310 310 311 309 309 314 319 320 321 323 324 330 337 339 339 337 335 337 340 341
303 302 302 301 300 301 301 302 303 304 304 304 304 304 305 306 308 309 310 315 313 308 310 308 308 308 306 306 305 306 306 307 308 308 309 311 310 310 309 310 312 314 313 314 314 315 315 316 316 315 314 313 313 314 313 314 315 316 317 316 315 315 315 317 315 311 312 312 311 311 310 310 310 311 316 319 321 323 324 334 341 340 338 336 335 336 338 339
303 302 301 301 301 302 302 303 303 303 303 304 304 304 305 307 309 310 312 314 311 309 309 308 308 308 307 306 305 306 306 307 308 307 308 311 310 309 309 310 311 312 314 313 313 315 315 315 315 315 315 314 314 313 314 315 316 316 316 314 312 312 312 313 312 312 313 312 311 310 311 311 309 309 316 321 323 324 325 334 341 340 338 336 335 335 335 336
303 302 301 301 301 302 302 303 304 303 303 303 304 304 306 308 310 311 312 310 309 310 309 309 309 308 308 306 306 306 306 307 308 307 308 310 310 309 309 310 311 312 312 312 312 313 314 315 315 315 315 315 313 313 314 315 316 316 314 311 310 309 311 312 310 311 312 312 311 311 313 311 308 315 323 322 324 329 333 337 340 340 338 337 336 335 335 335
302 301 301 300 301 302 302 303 303 304 305 304 304 305 307 309 310 310 311 310 310 310 309 311 310 308 308 307 307 308 307 307 308 307 308 309 310 309 309 310 311 312 313 312 311 311 312 315 314 313 314 315 314 313 312 312 314 314 311 310 309 309 313 314 312 311 311 310 311 312 313 308 314 329 335 330 333 336 336 337 338 338 337 335 334 333 332 332
301 300 301 301 301 301 302 303 303 304 305 304 306 307 308 310 311 309 309 311 312 310 311 311 309 308 309 309 309 309 307 307 308 308 308 309 310 309 309 310 311 313 314 313 312 311 312 313 313 314 313 315 316 314 313 313 312 313 313 312 311 310 312 313 311 310 311 311 309 311 314 314 324 337 337 333 335 334 334 335 336 336 333 333 331 330 329 329
300 300 301 301 301 301 301 303 303 303 304 304 307 308 309 310 310 309 309 310 311 312 312 310 308 309 309 310 310 308 307 308 308 308 308 309 310 309 309 309 310 312 313 314 314 312 311 311 313 314 313 314 315 313 315 313 311 314 315 312 311 312 312 311 311 311 311 312 309 314 326 330 333 336 335 334 335 334 336 336 335 333 332 331 330 329 329 327
299 301 301 301 302 301 301 302 303 303 303 305 307 308 309 309 310 310 311 310 311 313 312 310 309 309 310 309 309 308 308 308 310 309 308 309 310 310 310 309 311 312 313 314 314 313 312 312 314 315 314 315 314 313 315 313 312 313 312 310 312 316 315 311 312 313 313 314 312 321 337 338 336 337 335 334 336 336 336 335 334 332 330 330 329 328 327 327
300 301 301 302 302 302 302 302 303 303 302 305 307 309 308 309 309 310 311 310 311 312 313 312 310 309 310 309 309 308 307 308 309 309 308 309 311 311 310 310 310 311 313 314 314 314 313 312 314 314 314 315 314 313 314 313 315 312 310 312 313 317 316 313 313 312 313 315 312 323 340 339 337 340 337 335 337 336 335 335 332 331 329 329 329 327 326 326
302 302 302 303 302 302 302 302 303 302 303 305 308 308 307 308 309 310 310 310 310 312 313 313 312 310 310 309 310 309 307 307 308 310 310 310 311 311 311 311 310 311 313 314 315 316 314 311 313 314 314 315 314 313 312 313 316 314 312 314 313 313 313 312 313 313 314 316 313 320 337 336 334 337 336 336 337 335 334 334 331 330 329 328 327 326 326 325
302 302 302 302 302 303 302 302 302 302 303 305 307 307 308 308 309 310 309 310 310 311 313 313 313 313 312 310 310 310 308 308 309 310 311 310 310 312 311 311 311 311 313 313 315 316 315 313 312 314 314 315 313 312 310 311 314 315 315 315 313 313 312 311 312 312 313 315 313 321 334 333 329 335 335 335 336 334 334 333 331 329 327 327 326 325 325 325
302 302 303 303 303 303 302 303 303 302 304 305 306 307 307 308 309 309 309 309 310 310 312 313 314 315 315 313 311 310 308 308 310 311 311 311 310 311 312 312 311 312 312 313 314 315 316 315 314 315 314 314 312 312 312 312 312 313 312 312 312 312 312 312 312 310 311 313 313 320 329 329 328 333 335 334 335 333 333 332 330 328 326 326 326 325 325 324
302 302 304 304 303 303 302 302 302 302 304 304 305 306 307 308 309 308 309 309 309 310 310 312 314 315 315 314 312 312 309 308 310 311 311 311 311 311 312 312 312 312 312 313 313 315 316 316 314 314 312 311 312 313 314 314 314 314 311 311 312 311 310 311 311 311 310 312 313 313 321 330 334 335 335 334 334 332 331 330 329 328 326 326 326 324 324 323
303 303 305 306 304 303 302 302 302 303 304 304 305 306 307 308 308 308 308 308 309 309 309 311 312 314 314 314 313 314 311 308 310 311 312 312 312 312 312 312 313 312 312 312 313 316 317 316 314 314 312 312 314 314 315 314 315 315 312 313 314 312 311 310 311 313 309 311 313 310 320 335 336 334 336 335 333 332 330 329 328 327 326 325 324 322 322 321
303 305 305 306 305 303 303 303 303 303 304 304 304 305 306 307 308 308 308 308 309 309 309 310 311 312 313 312 313 313 312 311 309 310 313 313 313 313 313 312 312 312 313 313 313 316 318 316 314 314 313 313 314 314 315 314 315 314 314 315 315 313 313 311 313 315 312 313 312 310 326 339 335 331 334 334 333 331 328 327 326 325 324 323 322 321 320 320
304 304 304 305 306 304 303 304 303 303 304 304 305 306 306 307 307 308 308 308 308 308 309 310 311 312 312 313 313 313 313 312 311 310 312 313 313 313 313 312 313 313 313 314 315 316 316 315 315 315 315 314 315 314 313 313 313 314 314 315 315 314 314 314 314 316 315 314 311 314 331 338 334 332 333 332 330 328 325 325 324 323 323 322 321 320 320 320
304 305 305 306 306 304 304 305 306 306 306 306 306 305 306 307 307 308 308 308 308 309 309 310 311 311 312 313 313 313 313 312 312 313 312 313 314 313 313 313 313 312 313 317 318 315 315 316 315 316 317 317 317 315 313 312 312 313 314 314 315 314 313 315 314 312 314 313 310 320 335 336 332 332 332 330 328 326 325 324 323 323 322 321 321 320 320 320
305 305 304 305 305 304 304 305 307 308 308 307 308 306 306 308 308 308 308 308 308 308 309 309 310 311 312 313 313 313 313 312 313 313 312 313 315 314 314 315 312 313 320 324 321 315 315 317 316 315 315 316 315 314 313 313 311 311 313 312 314 315 315 316 314 311 314 312 312 325 335 336 334 332 331 330 328 326 326 324 323 323 321 320 320 319 320 319
305 305 305 304 304 304 305 305 306 307 308 308 308 306 306 307 309 309 308 307 308 308 309 309 309 311 313 313 314 314 314 313 312 312 313 316 316 315 315 314 313 319 325 322 317 315 315 315 316 316 315 314 314 315 317 317 313 311 312 313 315 314 315 317 315 315 315 312 317 330 335 335 335 333 331 329 327 326 325 324 323 322 321 320 319 319 319 319
305 306 306 305 305 305 305 305 305 306 307 308 308 307 307 308 308 308 307 306 307 308 309 310 310 311 312 313 315 315 315 315 314 313 314 316 315 316 317 314 314 320 320 314 313 316 315 314 316 317 316 316 317 317 318 319 315 313 313 312 314 314 315 317 317 319 319 315 322 334 336 334 334 333 330 328 325 325 324 323 322 321 320 319 319 318 319 318
305 305 306 307 306 305 306 305 305 306 306 308 308 308 308 308 308 308 307 308 310 309 310 311 312 312 312 313 313 314 316 316 316 316 318 319 317 317 317 316 315 318 316 313 315 317 316 317 319 319 317 318 319 319 320 318 317 318 316 313 316 318 316 316 318 324 328 328 332 337 335 335 334 331 329 327 324 323 322 321 321 320 319 319 318 319 318 317
305 305 306 307 307 307 307 306 306 307 307 307 308 308 308 308 308 309 308 309 311 312 311 312 313 313 313 313 313 314 315 315 317 319 320 321 321 320 318 317 316 317 316 314 316 317 316 319 323 322 319 320 321 321 321 320 318 320 319 316 315 317 318 321 326 331 335 337 337 335 335 335 332 328 327 325 323 323 321 321 321 320 319 319 318 318 318 317
306 306 306 306 308 307 308 307 306 307 307 307 308 308 308 309 310 310 310 309 310 312 312 313 314 313 314 314 314 315 315 315 317 317 318 319 320 319 320 319 317 316 316 316 317 317 317 319 322 322 319 320 322 320 321 322 322 323 326 325 322 323 327 330 331 332 335 335 334 334 333 332 330 327 325 324 323 322 321 321 321 320 319 319 318 318 317 317
306 307 307 307 308 308 308 308 306 307 308 308 309 309 309 309 310 311 312 312 311 312 312 313 314 314 315 316 315 316 316 317 317 316 318 320 319 316 318 319 319 318 318 317 317 317 317 319 321 320 318 320 324 323 323 323 323 326 329 329 330 331 333 333 333 333 334 334 333 333 332 329 327 325 325 324 323 322 322 321 320 320 319 318 318 317 317 316
Wind_Speed
10 10 10 9 9 9 9 9 10 11 11 12 12 13 12 12 13 13 13 14 15 16 17 18 19 19 20 20 19 19 20 20 20 17 17 15 14 13 9 9 7 6 7 8 11 11 11 13 13 14 12 9 8 7 10 9 7 6 5 6 7 8 9 11 9 5 5 3 5 1 8 9 9 10 8 9 7 12 16 15 16 17 17 17 19 22 23 21
10 10 9 9 9 10 10 10 11 11 11 12 13 14 13 12 13 13 14 14 15 16 16 18 18 20 20 19 19 18 20 21 20 20 22 19 15 16 14 12 10 7 9 11 13 13 12 11 12 13 9 7 7 8 9 8 8 7 6 7 8 8 11 10 3 4 5 4 4 2 5 9 9 11 7 7 10 12 15 12 15 17 15 14 16 18 19 19
10 10 9 9 10 10 11 11 12 12 13 13 13 13 13 13 13 13 14 14 15 16 17 18 19 20 20 19 18 16 19 20 18 16 18 18 18 20 18 16 13 10 12 14 14 13 12 11 12 11 9 8 7 9 9 8 8 8 7 7 9 11 14 7 6 8 8 5 1 1 6 7 8 11 8 9 11 11 14 12 14 15 13 12 12 14 16 16
10 10 10 10 10 10 11 11 12 13 13 13 13 12 13 13 14 14 14 14 15 16 17 18 19 19 19 19 16 15 16 16 11 4 4 10 17 20 20 19 16 13 13 16 16 15 14 13 12 11 10 8 8 10 9 8 6 7 8 9 12 10 10 5 3 2 3 4 4 1 6 6 4 6 7 12 11 8 12 15 17 17 15 12 11 12 14 14
10 10 10 10 10 11 11 12 13 13 13 13 12 11 12 13 14 14 14 15 15 16 17 18 20 19 18 18 14 13 12 8 0 8 9 9 12 14 17 19 18 16 14 15 16 16 16 15 12 10 9 8 9 9 8 10 7 7 9 13 16 9 9 6 2 3 2 1 4 2 4 5 3 3 4 12 7 2 8 16 19 19 16 14 14 12 12 13
11 10 10 10 10 11 11 12 13 13 13 12 12 12 12 13 13 14 14 15 15 15 16 17 20 19 18 16 12 11 9 4 5 10 8 7 9 7 8 12 17 19 15 15 15 15 14 14 12 9 8 8 11 10 9 11 9 8 8 13 16 11 9 6 3 3 3 5 8 4 3 2 4 4 7 8 8 14 17 20 18 17 17 17 15 11 11 11
11 11 11 11 10 11 12 12 13 13 14 13 13 13 14 13 13 14 13 15 15 15 16 17 19 19 18 16 11 10 9 9 6 5 6 4 7 5 3 4 12 18 16 16 16 14 13 13 13 9 9 9 11 11 10 11 12 10 9 12 12 9 9 6 0 4 3 10 10 4 3 2 8 8 8 6 12 19 20 19 18 16 16 16 14 11 10 9
11 11 11 11 11 11 12 13 13 14 14 14 13 13 15 15 13 14 14 14 15 16 16 17 19 18 17 14 10 8 9 16 16 9 6 5 8 5 2 2 9 16 16 18 17 14 13 14 14 10 9 10 10 11 10 10 12 12 12 12 10 9 10 7 2 2 6 10 6 4 4 9 12 7 9 9 11 19 20 17 17 16 15 14 13 12 9 8
11 11 11 11 11 12 12 13 13 14 15 15 14 14 15 15 13 13 13 14 15 16 16 16 18 16 13 11 9 7 9 17 14 12 7 6 9 7 5 7 11 14 16 18 18 17 13 12 14 13 11 11 11 11 10 9 9 12 14 13 11 8 9 10 7 5 7 7 6 8 9 13 10 6 7 11 12 18 19 17 17 15 15 13 12 12 9 8
12 12 12 12 12 13 13 13 13 14 15 15 15 14 14 14 13 12 13 14 15 16 15 15 17 15 13 11 8 7 8 9 8 11 7 6 10 10 9 10 12 14 16 17 18 18 14 12 13 12 12 11 11 11 11 9 8 9 11 14 14 10 8 9 9 8 7 7 10 11 11 11 8 5 8 11 12 14 17 17 17 14 13 12 11 11 8 8
12 12 12 12 12 12 12 13 14 15 15 15 15 14 13 13 13 13 13 14 15 15 15 14 15 14 13 11 8 6 3 3 5 7 7 8 10 11 11 12 13 14 16 16 18 19 18 16 14 10 9 9 10 12 11 11 11 6 5 10 14 13 10 10 10 10 9 9 12 12 13 11 8 9 10 12 12 13 16 16 18 15 13 12 10 10 7 7
12 12 13 12 12 12 12 13 14 15 16 15 14 13 12 12 13 13 13 15 15 14 13 14 13 12 13 10 11 14 8 4 3 3 6 10 12 13 12 13 14 15 15 15 17 20 20 19 17 13 9 8 9 10 8 11 13 9 7 9 10 13 13 11 11 11 12 9 11 11 12 11 10 14 13 13 13 14 17 16 16 14 12 12 10 8 7 8
13 13 13 13 13 12 13 13 14 15 15 15 14 13 12 12 13 13 13 14 15 14 13 13 12 12 11 7 13 23 21 15 10 6 5 8 10 11 12 11 12 13 15 15 16 18 20 19 18 16 12 10 9 6 5 7 12 11 10 8 7 10 11 12 10 12 14 9 11 11 8 9 11 16 17 15 15 15 18 16 14 11 10 11 9 8 7 8
13 13 13 13 13 13 13 13 14 14 15 15 13 13 13 13 13 14 14 15 14 14 13 13 11 10 9 8 16 25 25 22 19 15 11 9 9 10 12 12 11 12 14 16 16 16 18 19 18 14 12 11 10 8 7 7 9 10 10 7 7 7 9 13 12 13 13 9 13 13 7 8 12 17 17 15 15 16 18 18 15 12 9 9 9 8 8 7
12 13 13 13 13 13 14 13 14 14 15 15 14 14 16 16 17 17 16 15 15 14 13 13 12 9 7 11 18 20 22 23 20 19 16 13 13 12 13 13 13 14 14 16 16 14 15 17 16 11 10 11 12 11 9 8 7 8 9 8 8 8 8 14 16 14 14 11 15 14 8 7 13 16 13 14 14 14 16 19 17 14 12 9 9 9 7 6
13 12 12 12 13 13 14 14 14 14 15 15 14 16 18 20 20 18 16 15 15 14 12 12 12 12 6 8 13 12 16 21 20 19 18 17 16 13 13 13 12 15 14 14 14 12 13 14 12 9 9 10 11 10 7 7 7 8 9 8 9 10 10 11 17 17 16 14 14 14 11 7 12 15 14 15 15 15 14 18 16 14 14 11 10 10 7 7
13 13 12 12 13 13 13 13 14 14 14 14 16 18 19 19 18 17 17 16 14 12 12 13 12 11 8 11 13 12 15 20 21 22 20 19 18 16 15 12 11 14 14 13 14 12 10 9 7 7 8 9 9 9 8 8 8 8 8 8 10 12 11 9 15 17 18 16 13 15 15 10 12 16 17 16 16 15 13 17 17 12 13 11 10 11 9 8
14 13 12 12 12 12 13 13 13 13 13 14 16 19 16 12 12 14 14 12 10 10 12 14 12 7 8 14 16 14 15 19 21 22 22 21 20 19 16 11 10 14 13 11 13 11 8 7 6 7 9 9 10 10 9 9 9 9 9 8 9 11 12 11 13 16 19 17 13 15 16 16 14 14 16 14 15 15 12 18 16 12 13 12 11 11 10 10
14 13 12 12 11 11 12 12 12 12 12 13 16 18 15 10 11 13 13 11 8 7 7 10 11 7 4 9 19 20 16 18 21 20 22 22 20 20 17 12 11 14 13 9 11 12 8 7 8 9 9 11 12 12 12 13 13 12 12 10 10 10 11 13 12 17 19 16 14 15 14 17 18 14 16 13 13 13 13 17 12 11 11 9 9 8 9 9
13 12 11 12 11 11 12 12 12 12 11 12 14 14 10 8 8 8 11 12 11 11 10 10 17 15 13 11 13 19 14 13 19 18 21 22 20 19 15 12 12 12 12 11 11 12 10 8 10 11 12 14 16 16 16 17 16 13 12 11 13 12 10 14 14 19 18 14 13 15 14 18 18 14 16 13 12 9 16 18 12 13 11 10 12 11 12 8
13 13 12 11 11 12 12 11 11 11 11 12 13 10 7 7 4 1 5 12 16 19 19 17 17 18 20 18 11 11 8 8 14 15 19 21 20 17 13 13 13 11 12 14 12 11 11 10 12 14 16 16 17 17 17 18 19 16 11 10 11 12 10 13 14 22 18 12 12 16 15 17 15 15 16 14 12 10 18 18 14 16 13 13 13 12 12 5
14 13 12 10 11 12 11 12 11 12 12 12 14 12 11 13 9 8 5 9 14 21 22 22 20 17 19 23 17 5 4 9 13 14 18 20 18 15 13 14 14 11 14 14 11 10 11 11 14 17 17 17 17 17 16 18 18 15 11 8 9 10 9 11 13 21 17 10 10 15 14 15 13 15 13 13 12 10 17 17 15 15 14 14 12 12 13 7
15 13 11 10 10 12 11 12 12 12 13 14 15 15 15 18 13 11 10 8 9 16 19 20 21 18 18 19 15 7 7 11 13 15 19 20 16 15 14 15 15 13 15 15 13 10 10 11 15 17 17 17 17 16 16 16 14 12 11 8 8 11 10 8 12 18 17 9 10 14 12 13 11 14 11 11 11 10 17 18 15 15 14 15 15 14 15 12
16 13 11 10 10 11 11 12 13 15 16 16 19 19 17 19 13 10 9 8 10 12 16 19 18 17 18 17 13 11 10 11 12 15 21 20 15 14 14 15 15 14 14 18 18 14 11 12 15 18 17 18 17 15 16 13 10 12 13 10 9 12 13 11 10 14 15 10 12 12 9 10 9 13 11 10 9 12 15 16 14 15 16 15 15 15 16 15
16 13 11 9 8 9 10 11 14 16 17 16 19 20 17 15 11 8 7 6 8 10 15 19 15 15 21 19 15 13 11 12 14 14 20 21 17 14 12 12 12 13 16 20 19 14 13 13 16 18 18 18 18 15 16 13 9 11 13 14 13 12 15 14 11 12 10 9 12 12 8 7 8 12 12 12 12 12 9 9 10 14 15 14 13 13 13 13
17 13 11 9 8 8 8 7 11 13 14 14 17 18 15 11 6 4 5 5 6 9 13 15 12 15 20 18 15 13 11 12 14 14 19 22 19 14 11 9 8 13 17 16 13 8 11 15 16 18 19 19 18 15 16 15 10 8 10 16 18 14 15 13 15 13 8 8 12 14 9 7 9 11 12 12 12 10 8 8 11 14 13 11 10 9 9 11
18 14 11 9 8 7 6 6 12 11 8 9 10 7 7 8 3 0 3 6 6 8 15 14 10 16 21 17 16 14 9 9 12 15 16 21 20 15 13 12 9 12 13 10 9 7 11 17 17 18 19 17 15 13 14 16 11 8 10 16 18 16 15 12 17 13 8 7 10 15 13 8 8 11 13 14 13 13 12 12 13 15 14 11 9 7 7 9
19 15 12 9 9 10 10 11 17 11 2 4 1 6 5 4 2 2 4 4 3 6 12 12 12 18 20 18 21 16 8 9 12 14 15 22 20 14 14 15 13 14 14 11 9 9 13 17 17 18 17 13 13 13 15 17 13 10 12 15 15 16 16 12 13 11 8 8 8 14 15 9 6 11 15 16 15 15 16 14 12 15 17 12 10 7 6 8
20 16 13 9 8 11 13 13 17 15 9 9 1 5 3 3 2 2 4 4 3 7 10 11 13 15 17 18 21 18 11 10 12 11 14 20 20 14 11 15 15 15 17 15 12 11 13 15 17 17 14 11 13 15 17 17 13 12 14 13 13 15 15 12 10 9 8 8 9 14 16 10 6 10 13 13 14 15 15 12 10 15 16 10 8 7 6 8
20 16 13 9 8 10 11 13 19 18 14 11 3 5 2 2 2 4 6 6 5 9 9 9 11 13 17 19 18 19 17 14 12 13 13 14 17 16 10 13 14 12 14 15 15 15 13 14 15 15 13 12 14 16 17 16 14 14 16 12 11 12 10 10 9 9 8 8 10 15 18 13 7 8 12 11 11 12 13 12 14 15 13 9 6 5 6 6
19 16 13 11 11 9 8 9 13 14 13 10 4 7 3 2 4 5 7 7 5 9 9 9 13 15 20 20 16 18 19 16 14 16 13 11 14 15 10 11 12 10 12 12 13 17 16 14 11 12 13 13 13 14 15 16 16 14 13 10 9 7 8 8 7 8 7 7 11 16 19 16 10 8 8 12 14 16 15 14 17 17 13 11 8 6 6 5
18 16 14 13 12 11 10 6 4 5 10 7 5 5 3 4 5 6 7 6 4 8 9 12 15 14 19 21 16 17 19 15 15 18 16 12 12 13 12 11 9 9 11 11 13 15 14 13 12 13 15 16 13 11 12 14 14 13 12 10 9 8 7 8 7 8 7 8 13 16 16 14 10 6 4 11 16 11 11 12 16 18 15 14 12 9 8 6
18 16 14 14 13 13 15 11 5 2 3 4 5 4 4 5 7 9 10 6 4 7 7 11 15 16 19 18 15 18 18 16 16 18 18 15 13 14 16 16 14 11 10 11 13 12 11 13 16 16 14 15 15 11 10 11 11 13 12 9 10 9 8 7 7 7 8 9 13 16 14 10 8 3 10 4 11 13 15 12 12 16 15 14 13 12 11 9
18 15 14 14 14 14 14 12 6 2 3 6 4 4 6 6 7 10 12 8 4 7 10 9 16 17 19 16 14 17 15 15 18 17 17 16 13 13 15 18 20 15 9 10 10 10 12 12 14 15 10 12 16 14 11 12 12 12 12 11 10 9 8 7 7 7 8 9 11 13 9 3 6 5 10 13 18 17 16 14 13 15 14 13 12 12 11 10
16 14 14 13 14 14 14 11 7 4 5 5 3 4 8 8 6 8 9 7 3 6 11 12 17 15 16 15 15 18 15 13 18 17 14 15 12 13 14 15 20 17 10 8 7 10 14 11 12 15 13 15 18 16 14 13 11 10 11 11 10 10 8 5 6 7 5 6 8 6 1 3 6 7 9 13 19 18 18 16 15 15 14 12 11 10 10 9
12 13 14 13 13 13 14 13 9 6 5 4 4 7 9 7 6 5 4 4 4 6 8 10 15 12 12 12 13 20 18 13 16 15 11 14 14 15 16 14 18 19 13 9 6 8 11 10 14 18 17 20 19 17 17 13 9 8 10 12 10 11 10 4 6 7 3 4 7 4 5 4 6 6 5 11 18 18 17 16 14 14 14 12 10 10 9 9
12 13 12 14 15 14 15 15 12 10 7 5 6 8 7 7 9 8 2 1 2 5 6 4 10 11 11 11 10 18 20 15 15 14 10 13 14 15 18 16 18 21 18 13 7 7 9 9 14 19 18 19 18 18 19 16 11 9 9 12 11 12 11 5 5 7 5 6 7 6 10 8 5 3 3 8 14 16 16 15 14 13 13 12 11 10 10 9
12 11 10 13 16 17 18 17 15 12 6 5 8 8 8 8 11 11 8 5 1 3 4 4 6 10 11 11 10 17 19 13 12 13 10 10 11 16 19 15 18 22 22 17 9 7 10 8 11 17 16 15 15 15 16 17 18 14 10 11 10 8 9 6 4 6 7 7 7 7 13 10 7 7 10 13 14 15 16 15 13 13 12 12 11 11 11 9
10 7 6 10 16 19 21 21 16 9 5 6 7 7 7 9 11 13 13 9 3 4 5 4 5 6 5 8 11 15 18 14 12 11 9 8 9 16 19 14 16 22 22 19 10 6 9 7 6 15 17 14 12 11 11 12 16 16 12 11 9 6 7 7 5 6 7 7 7 7 9 7 7 10 15 17 17 18 17 14 13 13 12 11 10 10 9 8
9 5 2 8 15 20 24 21 13 7 6 7 7 7 7 9 10 12 14 11 5 2 3 4 6 6 8 8 10 12 15 15 13 11 9 9 10 14 19 16 15 20 22 20 13 7 6 5 3 10 17 14 10 10 12 12 13 13 12 11 10 7 7 8 7 7 8 7 6 6 6 4 2 8 17 19 18 18 18 14 12 12 13 11 10 8 7 7
6 3 2 8 15 21 22 15 8 7 6 7 8 9 10 9 9 13 16 11 6 2 2 2 4 5 8 9 7 5 10 14 13 10 8 10 10 9 15 17 16 18 19 18 14 7 4 5 3 5 12 12 11 13 15 16 15 13 11 10 11 10 9 8 9 9 9 7 6 7 5 3 5 1 11 18 18 17 18 16 13 13 13 11 9 8 8 8
5 3 3 9 17 21 16 8 6 7 6 7 9 9 9 8 9 13 16 9 6 3 3 4 1 6 8 9 8 7 7 13 13 11 9 12 12 8 13 18 18 18 15 13 14 10 4 3 4 5 9 12 14 16 16 19 19 16 12 11 12 11 10 9 7 8 8 8 8 8 4 3 6 5 3 9 16 17 17 17 14 12 12 10 9 10 10 9
4 1 1 6 16 18 11 6 7 7 7 9 11 11 10 8 9 11 13 8 7 5 4 5 1 6 9 7 7 8 7 8 13 13 10 11 13 10 13 19 19 17 15 12 12 11 6 3 6 7 8 11 14 16 16 19 19 14 13 14 13 12 13 11 8 4 5 7 8 6 3 2 5 8 7 4 12 17 15 15 15 13 10 10 11 11 10 9
1 0 1 6 15 15 8 6 7 7 7 10 12 12 10 7 9 10 11 9 6 4 3 2 0 5 7 6 5 8 8 4 11 14 11 10 11 10 14 18 18 14 11 10 9 9 7 6 7 7 8 9 11 12 14 16 15 12 12 15 16 17 17 14 9 5 3 8 10 5 3 3 5 8 8 9 14 16 14 14 15 13 11 10 11 10 9 10
1 1 2 6 12 12 7 5 5 4 5 10 11 11 8 6 8 11 12 11 7 3 1 1 3 6 7 6 6 8 8 6 6 9 12 10 8 8 13 14 14 14 12 12 10 9 7 7 7 8 9 9 9 9 10 12 11 10 13 18 20 21 19 11 7 6 5 8 10 3 6 7 8 10 11 13 14 15 14 14 13 13 12 11 10 9 9 9
1 2 3 5 7 7 6 6 7 5 5 9 8 8 8 7 8 11 14 11 7 5 3 3 4 5 6 7 6 7 9 7 7 8 10 11 7 7 11 12 12 13 10 9 11 9 5 7 9 10 10 9 11 12 12 12 13 13 15 20 21 20 18 12 7 6 6 6 5 6 13 14 13 15 14 14 15 15 15 14 14 13 12 11 10 9 9 9
2 1 3 5 6 5 6 7 7 6 6 7 6 6 9 9 8 8 11 8 4 4 4 3 4 6 6 6 6 6 8 8 9 10 6 12 9 8 11 14 14 6 4 4 10 8 4 6 11 14 13 13 12 10 9 10 13 17 19 20 20 19 18 14 8 7 8 6 3 10 20 18 16 18 18 16 16 16 15 14 14 12 11 11 10 10 10 10
2 3 1 2 3 6 7 7 8 9 9 7 6 7 9 10 9 6 7 5 1 2 3 3 6 9 8 7 6 4 6 7 9 8 4 12 12 9 9 13 12 5 3 7 10 6 4 6 10 13 13 12 9 8 11 12 10 15 20 20 18 19 19 15 9 8 8 4 5 14 20 19 18 18 17 16 16 16 15 15 14 12 12 12 11 11 11 11
2 3 4 5 4 4 5 7 9 9 10 8 6 8 9 8 9 8 6 3 2 2 3 5 7 9 9 9 8 5 5 6 7 5 1 5 7 8 8 11 10 7 7 11 8 6 6 3 4 9 9 10 9 8 11 13 10 10 14 19 16 15 18 17 10 4 4 8 13 15 14 12 12 14 15 14 14 15 14 14 14 13 13 12 12 12 12 11
1 2 3 5 4 4 4 7 9 9 8 8 6 7 9 9 8 8 5 2 3 4 5 6 7 8 9 10 8 7 6 8 7 5 2 3 1 3 5 6 7 9 10 11 8 8 7 1 1 5 8 9 9 8 9 10 9 11 11 16 18 14 12 10 4 7 11 12 16 19 16 9 5 9 14 13 13 14 14 15 14 13 13 13 12 12 12 11
3 2 3 4 4 4 5 7 8 7 6 6 6 7 8 8 6 5 4 2 4 5 5 6 7 8 9 9 9 9 7 8 10 7 2 2 5 5 4 5 7 10 12 11 8 8 8 2 1 4 7 5 6 9 8 5 6 9 9 9 9 7 3 2 6 11 15 16 17 17 13 7 5 9 12 12 14 16 16 16 15 13 13 13 12 12 12 11
5 2 2 3 3 4 6 6 7 6 5 5 7 8 7 5 4 4 3 3 4 4 4 7 9 8 8 10 11 10 6 6 8 5 5 5 10 9 5 2 2 3 8 9 7 5 7 6 3 3 7 4 3 5 2 2 3 2 4 9 5 8 11 10 9 10 15 16 13 9 8 10 11 12 12 12 14 16 14 14 13 13 13 13 12 13 12 11
Wind_Direction
329 327 328 327 328 329 328 331 331 328 327 324 323 323 320 319 317 315 316 316 317 317 317 318 319 319 316 316 319 322 328 319 307 295 263 252 248 246 240 220 242 258 222 219 230 226 211 215 226 226 226 228 223 234 233 217 226 233 226 245 241 237 237 246 249 235 257 143 94 232 173 199 196 169 209 219 175 109 87 85 84 73 73 79 95 113 124 132
325 323 323 323 325 325 325 327 325 324 324 322 319 320 321 318 318 317 316 316 316 317 317 318 318 317 318 318 320 326 328 313 293 281 266 257 245 240 241 236 248 243 211 217 227 222 214 212 214 217 221 225 214 217 229 204 204 234 226 231 239 241 240 246 283 18 5 71 73 11 193 219 184 164 193 196 184 140 104 99 102 93 94 99 108 117 127 137
321 319 319 320 321 319 321 323 320 321 320 318 312 311 317 317 318 316 314 315 314 315 316 317 318 317 319 317 320 330 324 306 287 273 263 251 235 234 237 235 240 232 212 218 229 226 221 218 208 210 220 226 219 210 217 193 189 226 230 233 236 242 252 254 59 44 23 34 56 148 213 235 174 166 178 191 207 165 124 124 119 109 111 116 122 128 136 144
318 316 316 315 315 315 317 319 319 320 317 316 311 305 310 313 315 316 314 315 313 314 314 316 317 316 318 316 319 332 318 295 282 257 208 212 215 222 230 233 233 222 217 228 243 248 237 229 214 211 225 227 224 215 212 196 187 215 221 240 237 241 276 293 79 82 25 359 338 31 206 230 179 149 173 196 207 185 154 143 129 124 125 127 136 141 145 150
313 311 312 310 310 311 312 315 317 317 317 318 317 313 309 309 311 313 313 313 314 313 314 315 315 317 318 315 318 326 310 283 347 108 126 162 186 205 221 227 225 214 219 235 249 256 244 237 225 212 228 238 226 214 214 211 204 223 224 239 249 270 307 302 236 193 122 273 302 308 223 229 205 119 202 211 195 98 123 125 121 128 137 140 145 148 154 157
308 306 307 306 305 307 309 312 314 315 318 319 317 315 313 313 309 309 312 312 314 313 316 317 316 320 317 314 316 304 276 260 73 110 134 152 161 171 196 216 218 210 217 234 243 248 238 235 232 215 222 240 238 222 212 213 213 233 233 236 251 274 289 285 223 143 96 257 255 262 333 346 200 181 239 225 113 86 96 113 119 130 138 138 144 152 158 160
305 304 303 303 303 303 307 308 311 313 315 315 311 307 306 311 309 308 309 307 311 313 315 316 317 321 320 325 313 271 241 266 289 164 167 171 166 157 138 202 207 200 211 228 232 237 233 229 230 222 221 230 243 236 217 214 219 232 243 243 246 247 260 286 63 117 177 242 251 265 353 284 220 205 214 198 111 106 107 117 124 129 133 133 145 152 157 162
302 301 300 300 300 301 304 304 308 310 310 310 308 305 302 305 305 306 306 304 307 309 312 315 317 321 324 331 312 258 227 257 256 204 193 191 181 191 188 195 192 192 207 221 224 230 230 227 227 224 226 226 236 240 224 219 222 228 244 256 255 233 231 243 210 147 213 222 245 256 235 225 228 230 200 177 123 113 111 118 123 126 132 134 146 149 155 158
298 298 297 296 297 298 300 301 305 307 308 307 306 305 303 304 306 304 304 303 303 304 310 313 314 319 317 311 294 272 248 250 230 180 182 185 183 205 216 194 187 195 208 218 223 229 229 226 227 226 231 234 235 241 233 226 223 219 230 245 257 250 231 232 220 216 228 211 218 227 225 220 216 248 213 168 136 121 116 119 122 127 132 134 146 148 151 150
296 296 294 294 295 295 297 300 303 305 306 305 303 301 299 302 305 305 303 302 304 303 307 312 313 316 309 289 263 258 260 247 192 162 180 189 182 187 206 207 190 197 211 216 221 227 230 228 228 231 239 245 246 247 239 231 235 225 226 234 242 252 242 236 229 221 230 224 220 216 221 218 182 212 213 155 145 139 131 126 124 129 128 134 148 143 147 145
294 294 293 293 292 293 294 298 302 303 304 303 300 296 295 297 298 303 303 300 302 301 303 309 312 312 301 287 257 234 217 204 183 180 200 208 202 193 206 214 198 202 213 216 221 224 230 233 233 235 234 244 254 258 256 246 247 240 236 243 238 242 241 228 224 221 224 220 218 215 217 210 167 218 219 147 147 152 144 134 125 128 129 136 143 139 147 143
291 292 293 291 290 290 292 296 299 301 302 302 298 294 296 293 292 298 298 297 300 300 301 304 308 305 293 282 248 231 231 263 229 195 211 212 216 214 214 215 208 209 214 218 222 223 229 233 235 239 230 230 242 253 267 258 253 239 224 247 239 234 239 227 214 214 219 204 201 216 221 202 179 223 221 146 153 160 144 133 122 127 134 136 140 147 150 144
288 291 292 290 288 288 290 293 295 300 301 300 297 294 295 290 290 294 291 293 295 294 295 296 300 294 285 278 248 239 247 272 271 248 240 220 218 218 218 221 219 218 222 227 226 221 226 232 235 242 242 239 241 248 282 267 255 243 229 243 244 230 229 222 213 213 215 193 188 211 225 198 180 220 219 154 161 170 138 126 126 132 138 140 146 152 149 147
283 289 291 290 289 287 289 291 292 298 299 297 295 292 292 289 288 290 289 290 290 290 290 291 290 280 270 261 261 253 250 266 269 250 237 232 230 221 213 215 223 228 230 235 235 226 222 228 236 243 246 251 262 259 257 251 238 236 234 231 235 240 220 204 207 213 212 199 194 204 227 198 180 216 213 152 164 180 142 131 137 141 146 153 151 142 141 141
279 285 289 290 290 288 289 289 291 297 298 295 294 292 289 286 287 289 287 284 282 280 283 283 266 256 271 258 262 262 249 254 260 245 230 226 229 224 211 207 217 224 227 230 236 239 226 221 229 239 244 250 263 258 241 239 227 222 229 224 220 237 230 197 193 206 210 205 193 197 233 205 183 207 187 142 169 186 156 143 144 148 148 149 143 131 127 125
274 278 284 289 292 291 289 289 291 293 295 295 292 287 283 284 289 289 282 277 276 268 267 271 239 224 262 264 253 252 234 232 235 235 230 224 223 225 217 210 212 215 220 223 226 237 230 220 222 231 241 237 243 248 239 235 224 212 217 228 218 219 241 204 180 196 210 207 188 194 236 216 185 197 166 152 179 193 175 149 146 152 145 147 144 132 132 130
270 275 280 285 290 292 290 290 289 289 290 291 288 284 286 289 288 283 275 269 268 254 241 255 242 220 248 278 271 250 222 218 220 223 225 223 221 224 222 209 204 206 211 214 216 227 225 219 217 215 230 232 227 226 230 229 218 211 206 226 230 215 237 215 169 185 208 209 189 197 232 235 198 184 164 167 185 198 181 144 150 158 142 151 150 139 146 133
263 270 276 281 286 288 290 290 287 287 289 289 288 286 287 286 277 271 265 250 244 243 237 249 256 234 235 251 249 236 220 212 212 214 215 214 213 219 221 207 198 201 202 204 209 214 205 200 209 210 215 225 226 216 219 223 212 210 201 214 235 220 229 223 171 175 202 205 196 203 224 242 228 180 160 172 192 202 168 141 154 155 145 154 147 140 143 128
256 263 270 278 282 284 285 287 286 287 288 291 294 292 283 271 265 258 239 215 201 213 221 212 209 216 263 237 220 225 232 210 201 208 208 200 200 213 216 205 202 199 197 197 194 197 193 192 207 216 212 212 220 217 219 228 222 212 204 208 227 223 225 228 186 168 192 200 205 214 214 237 239 188 161 172 205 209 149 139 147 137 141 140 116 99 90 91
248 257 266 273 278 281 281 283 284 283 285 289 296 294 273 241 242 239 213 205 209 221 234 204 190 216 269 282 220 214 231 209 192 199 201 189 187 203 207 199 201 200 200 197 186 190 196 200 209 213 214 211 214 220 224 234 240 230 213 208 224 229 222 227 193 162 185 201 207 222 217 230 231 179 164 174 207 200 130 134 148 140 135 104 89 79 71 66
243 251 260 268 275 279 279 281 280 279 279 280 283 279 251 233 249 320 201 210 220 229 245 239 211 219 250 273 256 198 203 204 187 193 194 182 182 195 196 192 198 199 201 202 190 190 201 211 215 211 216 216 214 220 226 235 247 247 233 210 220 232 224 227 188 156 179 206 205 220 226 232 214 165 168 179 193 172 129 138 155 152 138 104 101 103 101 108
238 244 255 264 271 277 279 279 275 275 274 268 265 255 254 269 301 343 290 233 229 228 238 248 241 240 246 260 270 245 206 206 192 196 190 178 183 192 185 188 201 196 194 202 196 192 206 216 215 210 215 221 219 219 223 234 243 250 251 226 216 229 224 227 194 162 175 201 203 211 228 238 200 160 172 188 196 168 137 146 154 150 136 116 122 122 119 140
232 235 250 255 267 278 277 273 271 271 266 256 252 246 253 267 289 320 288 262 263 238 230 237 242 245 243 247 253 234 229 221 201 200 190 180 187 196 189 188 200 199 192 203 205 196 205 212 212 212 213 218 223 219 218 232 239 243 252 241 222 221 211 221 206 174 166 185 210 202 219 243 192 158 172 183 198 178 149 157 160 152 141 133 139 137 135 155
229 229 240 248 267 276 274 274 271 261 253 247 249 250 258 268 284 315 290 264 275 257 235 230 228 235 236 236 232 213 222 233 220 199 185 184 189 196 200 193 196 205 199 203 209 211 211 203 205 212 212 213 221 220 216 225 231 233 241 243 236 216 209 223 211 173 156 181 222 205 208 241 188 162 169 162 192 196 169 170 166 148 143 139 138 141 142 153
226 221 227 243 262 272 278 279 264 249 239 241 248 246 253 269 285 304 299 274 261 253 240 228 219 224 225 226 224 215 217 229 233 207 178 186 195 190 201 199 195 209 204 203 210 216 215 201 198 209 211 211 217 218 216 219 223 228 231 239 247 225 216 220 189 166 164 186 219 216 207 224 185 170 178 172 187 192 168 161 146 128 138 139 128 135 136 133
224 216 217 236 253 269 276 267 262 248 229 234 245 237 230 241 262 288 278 268 261 242 215 203 202 203 205 214 210 205 218 222 233 218 176 185 202 196 201 200 195 213 207 202 211 218 217 204 195 205 209 209 216 218 212 213 221 227 217 232 250 247 233 211 164 166 197 189 208 221 216 208 183 173 185 182 172 167 150 146 132 119 130 130 113 122 128 121
223 213 207 231 247 250 243 271 296 279 225 232 241 215 195 207 216 338 252 254 259 226 193 182 180 175 181 198 191 192 217 193 216 230 186 181 202 206 208 200 190 213 209 201 212 208 213 209 195 201 210 208 213 219 208 205 218 227 209 223 241 250 246 204 159 168 208 190 203 223 226 225 192 172 186 183 169 178 182 181 169 141 129 121 109 103 109 124
217 208 202 223 237 235 241 282 297 285 299 354 119 128 129 169 205 244 233 242 224 178 174 171 165 163 172 186 184 195 217 163 184 226 196 182 196 207 213 209 198 206 210 208 210 196 205 217 202 194 207 213 208 214 211 204 214 227 213 215 226 241 252 229 179 174 194 195 209 221 224 233 206 180 193 189 182 195 193 186 176 143 128 124 125 121 115 131
209 201 198 216 234 240 247 268 276 272 307 335 98 144 163 157 167 240 226 240 188 134 140 153 160 169 176 177 183 198 211 184 178 200 190 183 198 213 219 218 208 204 213 218 218 202 193 213 219 201 199 216 210 209 216 209 207 229 227 215 217 231 249 255 226 189 182 202 217 216 214 226 224 182 186 191 189 197 190 165 126 111 117 117 116 121 118 122
203 193 195 211 226 238 242 248 259 263 282 296 213 170 212 168 202 214 203 237 211 147 132 147 164 179 180 174 183 195 201 205 186 180 187 180 196 216 224 226 222 211 213 217 224 224 196 194 227 226 198 208 215 207 215 213 197 222 239 220 209 225 239 263 252 206 194 209 219 221 212 212 235 203 186 188 183 183 179 149 114 108 118 117 100 99 107 113
196 186 191 205 216 227 222 228 254 252 251 266 212 179 197 202 229 207 193 239 221 151 138 160 174 181 182 177 180 189 199 212 191 175 183 177 188 209 215 218 227 221 212 211 220 229 214 188 211 241 213 205 219 207 209 214 197 209 239 221 198 209 225 252 245 202 202 210 217 225 213 201 220 233 195 175 176 182 178 149 126 127 135 137 137 136 136 121
191 185 194 208 221 231 223 226 307 263 233 234 186 186 204 195 227 227 216 243 205 157 164 178 182 184 183 180 181 187 196 209 198 178 179 183 184 199 208 205 209 210 205 205 208 215 221 200 193 225 216 198 211 207 201 213 203 204 229 225 206 195 203 236 230 198 205 215 214 218 216 204 204 271 276 181 178 169 142 120 120 128 128 127 129 125 121 105
188 187 199 214 226 230 232 248 312 352 199 175 169 207 223 202 218 225 232 245 150 168 202 183 180 185 181 181 186 189 193 204 198 179 177 189 188 192 209 211 208 212 205 201 204 201 213 211 200 208 206 193 207 212 193 201 204 207 218 221 213 198 191 216 220 202 206 217 216 211 217 210 174 354 348 116 123 95 98 105 118 121 110 107 110 107 107 105
183 189 206 218 224 227 235 243 249 229 156 154 171 207 210 220 228 219 237 259 179 210 244 189 171 183 181 185 193 185 191 206 195 177 175 190 192 190 204 212 211 217 215 201 202 200 205 211 203 201 196 191 210 226 211 196 200 209 215 219 217 207 198 208 216 212 207 216 227 218 222 218 143 72 30 80 96 98 112 116 114 111 103 103 104 105 107 105
179 199 216 221 222 226 232 227 217 212 180 172 199 216 206 216 232 216 229 252 216 231 242 180 165 183 184 188 195 183 191 207 189 178 181 191 196 192 194 207 210 212 215 203 199 203 207 214 202 194 197 198 207 228 224 201 198 207 215 219 215 210 206 198 211 225 217 217 231 224 211 47 100 85 60 88 99 103 111 112 113 112 109 109 107 107 106 104
187 211 220 222 219 215 213 207 200 194 184 193 218 218 213 217 253 258 218 238 246 242 239 176 166 186 183 185 192 183 193 211 189 179 188 195 199 196 192 200 205 208 213 202 187 198 203 212 200 190 198 203 202 219 226 215 200 194 212 219 207 209 217 194 194 218 239 227 217 159 96 91 110 89 69 100 105 108 113 116 120 117 112 110 108 107 105 108
203 211 211 216 215 205 197 191 186 183 191 224 225 224 233 241 264 282 263 257 277 232 254 219 181 188 181 187 190 178 190 210 195 184 189 195 199 197 195 198 201 207 215 205 190 204 209 216 203 193 200 203 196 208 226 234 221 192 206 219 203 204 221 215 191 204 209 226 225 155 134 149 150 128 153 137 123 125 129 124 121 119 116 113 111 111 111 115
214 214 219 219 205 192 187 181 177 180 195 229 236 246 260 255 268 289 293 288 288 187 241 271 213 197 185 187 185 177 186 200 190 186 192 194 196 196 195 196 198 205 214 210 199 206 214 220 198 189 199 203 193 202 223 233 228 215 207 214 211 205 215 215 202 205 200 215 231 172 146 162 178 154 165 168 153 144 138 130 126 124 121 117 115 118 119 119
233 222 227 215 196 183 175 172 174 184 205 221 231 244 259 266 267 278 284 278 255 192 214 259 256 249 232 205 185 176 184 192 186 186 198 194 186 192 195 195 196 201 209 209 202 198 213 230 201 184 193 198 187 200 221 216 215 219 210 204 215 223 217 214 212 210 207 213 221 180 151 179 190 160 169 174 162 152 143 137 136 129 123 122 121 124 126 126
237 221 194 181 177 170 166 170 180 197 211 221 236 239 250 273 268 266 276 269 256 232 199 238 256 278 295 256 201 179 184 193 191 189 197 192 178 184 192 195 192 196 205 207 200 191 200 230 242 183 188 194 187 198 216 205 195 209 211 197 201 218 223 223 217 211 214 214 212 197 178 177 138 159 174 168 157 155 147 138 139 132 125 125 126 129 129 125
225 218 189 164 158 156 163 174 194 206 216 226 240 246 252 272 277 281 286 264 235 262 159 181 256 275 303 284 249 212 192 190 193 194 190 191 191 190 194 197 191 189 201 208 197 185 189 209 241 195 187 197 199 196 210 215 201 198 210 208 204 208 215 223 216 210 217 217 215 218 194 105 37 159 177 161 150 150 143 136 134 131 126 124 125 127 123 118
232 207 178 162 156 157 168 189 201 203 226 229 232 239 244 264 269 277 284 254 208 230 158 120 273 271 285 277 269 282 226 191 194 199 188 190 202 207 196 196 194 185 190 207 196 174 162 202 218 212 197 203 205 197 206 221 217 205 208 216 214 205 208 227 224 205 213 220 226 226 186 79 26 26 106 148 141 136 134 131 128 126 124 120 122 122 117 114
244 224 190 171 169 171 182 204 200 207 231 232 236 234 225 243 258 268 282 259 205 208 174 127 159 256 277 275 255 277 270 207 199 198 190 192 196 202 202 196 196 190 185 200 196 164 144 209 212 201 199 208 210 200 200 216 224 219 205 209 222 213 202 218 232 218 212 221 228 220 157 86 38 56 57 90 118 119 123 124 121 123 124 122 122 118 117 120
263 275 275 194 184 188 204 208 200 209 226 231 236 232 220 234 255 265 282 271 222 206 202 135 160 255 274 287 259 273 294 255 212 200 193 195 182 192 216 204 193 191 185 193 187 152 153 200 202 192 190 202 210 203 197 205 218 227 210 206 222 222 208 208 220 227 227 227 231 228 121 107 78 88 97 102 110 115 119 121 121 123 124 122 120 120 126 127
263 185 187 189 190 201 223 235 242 249 259 256 244 233 228 236 245 250 264 269 254 230 197 186 250 258 258 264 264 274 290 294 256 215 195 186 163 189 232 221 193 187 193 195 173 148 167 190 195 201 193 191 208 211 202 198 207 225 217 207 215 224 223 214 207 217 217 218 226 205 113 122 113 114 122 121 121 123 125 127 125 122 123 122 123 129 131 123
255 181 156 167 186 211 231 248 268 275 282 283 264 238 235 240 245 242 245 257 258 248 244 212 235 259 256 254 266 280 277 266 267 254 203 167 147 197 234 242 218 194 186 184 163 148 175 194 201 215 207 199 208 209 206 203 204 213 221 216 211 218 229 228 217 224 216 212 219 135 127 137 140 142 144 138 134 133 133 134 127 123 125 125 128 133 126 119
265 214 150 157 175 209 232 237 244 245 257 277 271 246 237 241 257 244 226 231 255 277 284 266 250 258 248 242 250 278 289 272 264 264 193 142 147 200 220 230 222 183 85 164 175 168 192 202 208 221 226 220 214 219 237 232 213 210 218 221 210 207 226 239 229 213 213 225 214 133 135 143 154 157 153 146 141 137 137 134 128 125 126 128 134 133 125 121
303 317 314 269 212 195 209 220 225 237 250 259 267 265 247 237 248 237 202 205 297 325 283 266 259 253 242 239 239 251 287 283 266 262 171 143 162 189 208 219 206 133 86 204 190 180 207 211 211 217 230 240 240 256 268 264 246 224 216 219 217 207 214 233 241 226 222 214 147 147 147 150 159 160 151 145 140 135 134 131 127 126 127 133 138 132 127 123
320 301 297 300 279 207 207 217 220 236 246 245 258 271 261 244 242 233 206 208 261 258 253 264 264 254 243 241 240 240 249 255 269 294 35 132 168 185 197 209 193 152 187 210 194 183 206 224 216 207 221 244 247 259 263 259 273 269 229 218 225 220 212 221 235 219 150 115 120 129 126 127 146 145 134 134 132 127 129 128 128 132 135 139 138 132 128 122
280 304 314 305 280 262 267 238 222 230 239 236 243 254 253 250 250 247 233 206 243 258 258 260 267 271 264 254 250 253 242 229 244 288 22 81 159 208 202 212 196 175 195 213 198 183 195 265 323 203 213 233 236 256 271 260 278 303 271 227 225 233 226 216 179 101 102 105 109 108 97 86 94 108 115 126 129 127 130 132 135 140 140 139 136 130 127 121
255 235 281 298 284 274 271 243 223 226 230 225 228 239 244 243 247 272 286 254 247 257 258 268 282 285 278 273 266 263 262 249 246 259 289 199 207 196 197 229 218 193 197 208 200 182 182 172 35 207 215 218 220 233 248 275 313 325 317 277 246 228 205 92 86 109 119 117 111 108 110 120 125 111 115 127 132 133 136 138 140 141 138 137 135 129 125 124
320 285 267 296 291 267 253 231 214 223 234 220 218 230 246 242 228 244 274 284 276 274 284 290 290 286 278 274 266 262 280 287 268 296 340 265 215 189 180 219 264 234 211 197 189 185 179 169 142 193 217 196 169 215 212 30 333 335 354 332 348 101 106 80 67 101 122 125 124 123 129 139 139 132 129 136 139 139 139 140 140 140 138 136 133 128 125 126